www.pogodaiklimat.ru
Время
(UTC), дата
18 15.09
21 15.09
00 16.09
03 16.09
06 16.09
09 16.09
12 16.09
15 16.09
18 16.09
21 16.09
00 17.09
03 17.09
06 17.09
09 17.09
12 17.09
15 17.09
18 17.09
21 17.09
00 18.09
03 18.09
06 18.09
09 18.09
12 18.09
15 18.09
18 18.09
21 18.09
00 19.09
03 19.09
06 19.09
09 19.09
12 19.09
15 19.09
18 19.09
21 19.09
00 20.09
03 20.09
06 20.09
09 20.09
12 20.09
15 20.09
18 20.09
21 20.09
00 21.09
03 21.09
06 21.09
09 21.09
12 21.09
15 21.09
18 21.09
21 21.09
00 22.09
03 22.09
06 22.09
09 22.09
12 22.09
15 22.09
Ветер
(напр.,м/с)
Видим. Явления Облачность Т
(С)
Тd
(С)
f
(%)
Тe
(С)
Тes
(С)
Комфортность P
(гПа)
Po
(гПа)
Тmin
(С)
Tmax
(С)
R
(мм)
R24
(мм)
S
(см)
С 4 10 км 8/0
[Ac trans Ci fib]
+23.1 +11.7 49 +26 +26 жарко 1012.6 1008.6
С 3 10 км 10/10 1000 м +20.5 +10.9 54 +23 +23 комфорт 1012.8 1008.7
С 2 10 км 8/0 +17.5 +11.1 66 +18 +18 тепло 1012.2 1008.1
СЗ 1 10 км 10/10 1000 м +17.2 +7.4 52 +18 +18 тепло 1012.1 1008.0 +16.2
С 3 10 км 10/10 1000 м +18.5 +6.6 46 +19 +19 тепло 1013.1 1009.0
СВ 4 10 км 8/8 1000 м +21.7 +8.1 42 +23 +26 комфорт 1013.2 1009.2
СВ 4 10 км 10/8 1000 м
[Sc diur, vesp Ac As]
+21.4 +9.8 48 +23 +23 комфорт 1013.7 1009.6
В 4 10 км 8/6 1000 м
[Cb cap Ac As]
+19.8 +8.6 48 +21 +21 комфорт 1014.4 1010.3 +22.3
СВ 2 10 км 6/0
[Ac trans]
+14.8 +10.8 77 +15 +15 по сезону 1016.0 1011.8
С 2 10 км 4/0
[Ac trans Ci fib]
+12.5 +9.8 84 +12 +12 прохладно 1016.2 1012.0
С 2 10 км 3/0
[Ci fib]
+10.9 +8.7 86 +10 +10 по сезону 1016.2 1012.0
С 2 10 км 5/0
[Ac trans Ci fib]
+9.8 +8.7 93 +8 +8 прохладно 1015.9 1011.7 +9.8
СВ 3 10 км 3/0
[Ci fib]
+17.6 +11.8 69 +18 +21 тепло 1015.9 1011.8
СВ 3 10 км 1/0
[Ci fib]
+22.4 +9.5 44 +24 +33 комфорт 1015.4 1011.4
В 3 10 км 1/1 1000 м
[Cu hum]
+23.9 +10.1 42 +25 +30 комфорт 1014.4 1010.4
В 3 10 км 4/3 1000 м
[Sc diur, vesp Ac trans]
+20.5 +10.3 52 +22 +23 комфорт 1014.5 1010.4 +24.3
СВ 3 10 км ясно +16.1 +11.4 74 +16 +16 тепло 1015.3 1011.2
СВ 2 10 км ясно +13.0 +10.4 84 +12 +12 по сезону 1015.4 1011.2
СВ 2 10 км ясно +11.0 +11.0 100 +10 +10 по сезону 1015.0 1010.8
СВ 2 10 км 3/0
[Ac trans Ci fib]
+9.6 +9.6 100 +8 +8 прохладно 1014.8 1010.6 +9.5
В 1 10 км 5/0
[Ac trans Ci fib]
+17.0 +14.6 86 +18 +22 тепло 1015.0 1010.9
ЮВ 3 10 км 8/0
[Ac trans Ci fib]
+23.2 +12.8 52 +26 +32 жарко 1014.1 1010.1
Ю 2 10 км 8/4 1000 м
[Cu hum Ac trans]
+25.4 +14.5 51 +28 +30 жарко 1013.1 1009.1
ЮЗ 3 10 км 4/3 1000 м
[Cu hum Ac trans Ci fib]
+23.8 +13.7 53 +26 +26 жарко 1012.8 1008.8 +26.6
штиль 0 10 км 4/0
[Ac trans]
+17.7 +15.0 84 +18 +18 тепло 1013.5 1009.4
Ю 1 10 км 8/0
[Ac trans Ci fib]
+16.0 +16.0 100 +17 +17 тепло 1012.8 1008.7
Ю 1 10 км 10/3 1000 м
[Sc diur, vesp Ac trans]
+15.9 +15.9 100 +17 +17 тепло 1012.3 1008.2
СВ 1 10 км 10/10 1000 м
[Sc diur, vesp]
+16.2 +16.2 100 +17 +17 тепло 1012.1 1008.0 +15.2
В 2 10 км 10/10 1000 м
[Sc]
+19.0 +18.2 95 +21 +21 комфорт 1012.3 1008.2
ЮВ 2 10 км 10/10 1000 м
[Sc]
+21.6 +15.8 70 +25 +25 комфорт 1012.3 1008.3
ЮЗ 2 4000 м слаб. ливневой дождь 10/10 1500 м
[Cb cap]
+20.9 +17.2 79 +25 +25 комфорт 1012.5 1008.5
Ю 4 4000 м слаб. ливневой дождь 10/10 1000 м
[Cb cap]
+17.7 +17.7 100 +17 +17 тепло 1012.8 1008.7 +22.8 3
Ю 3 10 км {ливн. дождь} 10/10 1000 м
[Cb cap]
+18.2 +18.2 100 +19 +19 тепло 1012.5 1008.5
ЮВ 4 10 км {ливн. дождь} 8/1 1000 м
[Sc Ac trans Ci fib]
+17.9 +17.9 100 +18 +18 тепло 1011.7 1007.6
Ю 3 10 км {ливн. дождь} 9/8 1500 м
[Cb cap Ac trans]
+18.4 +18.4 100 +19 +19 тепло 1011.5 1007.5
ЮЗ 3 н/о н/о +17.2 +17.2 100 +17 +17 тепло 1011.8 1007.7 +16.8 2
ЮЗ 3 10 км 6/6 1000 м
[Sc diur, vesp]
+20.6 +16.6 78 +24 +26 комфорт 1012.9 1008.9
Ю 2 10 км слаб. ливневой дождь, в посл. час гроза 8/8 600 м
[Cb cap]
+21.8 +18.0 79 +26 +29 душно 1013.4 1009.4
Ю 4 10 км {гроза, ливн. дождь} 8/8 600 м
[Cb cap]
+23.7 +13.5 53 +26 +27 жарко 1013.3 1009.3
Ю 4 10 км 8/4 1000 м
[Sc diur, vesp Ac trans Ci fib]
+22.0 +13.4 58 +25 +25 комфорт 1013.6 1009.6 +25.8 8
В 1 10 км 8/3 1500 м
[Cb cap Ac trans Ci fib]
+16.4 +16.4 100 +17 +17 по сезону 1014.5 1010.4
Ю 2 10 км 5/0
[Ac trans]
+16.3 +16.3 100 +16 +16 по сезону 1014.2 1010.1
В 1 2000 м дымка 5/0
[Ac trans]
+15.7 +15.7 100 +16 +16 тепло 1013.4 1009.3
СВ 1 10 км 10/10 600 м
[Cb cap]
+15.6 +15.6 100 +16 +16 по сезону 1012.9 1008.8 +14.7
СЗ 3 2000 м гроза, ливневой дождь 10/10 1000 м
[Cb cap]
+16.2 +16.2 100 +16 +16 по сезону 1012.7 1008.6
С 1 4000 м слаб. ливневой дождь {гроза} 10/10 300 м
[Cb cap]
+13.5 +13.5 100 +14 +14 холодно 1013.8 1009.7
С 2 4000 м слаб. ливневой дождь {гроза} 10/10 600 м
[Cb cap]
+14.3 +14.3 100 +14 +14 очень
холодно
1013.9 1009.8
СЗ 1 10 км {ливн. дождь} 10/9 1000 м
[Cb cap Ac trans]
+14.2 +14.2 100 +14 +14 холодно 1014.5 1010.4 +16.9 36
ЮЗ 1 10 км {ливн. дождь} 8/8 1000 м
[Cb cap Ac trans]
+13.9 +13.9 100 +14 +14 прохладно 1015.6 1011.5
З 2 10 км 8/8 1000 м
[Cb cap]
+14.7 +14.7 100 +14 +14 по сезону 1015.3 1011.2
З 3 10 км {ливн. дождь} 9/8 1000 м
[Cb cap Ac trans]
+13.8 +13.8 100 +13 +13 по сезону 1015.3 1011.1
З 1 10 км 10/10 1000 м
[Sc diur, vesp]
+13.0 +11.0 88 +13 +13 по сезону 1015.4 1011.2 +13.0 0.3
СЗ 2 10 км 9/8 1000 м
[Cb cap Ac trans]
+14.5 +11.2 81 +14 +15 прохладно 1016.0 1011.8
СЗ 2 10 км 10/10 600 м
[Cb cap]
+14.8 +8.8 67 +15 +15 холодно 1015.3 1011.1
СЗ 2 10 км 10/10 1000 м
[Cb cap]
+14.9 +8.5 66 +15 +15 холодно 1015.0 1010.9
СЗ 1 10 км 10/8 1000 м
[Cb cap Ci fib]
+14.3 +9.1 71 +15 +15 холодно 1014.9 1010.7 +16.4
Местоположение метеостанции Краснодар (Краснодарский край, Россия): широта 45.05 долгота 39.03 высота над уровнем моря 29 м.
В архиве по умолчанию представлена погода в Краснодаре за последнюю неделю. Архивные данные за месяц целиком и за предыдущие месяцы, начиная с января 2011 года, Вы можете получить, выбрав интересующий диапазон дат из раскрывающегося списка и нажав кнопку "Найти!".
*Определитесь, кто Вы:
Внимание! Время в таблицах - всемирное. Для получения местного времени необходимо прибавить поправку, которая равна 3 ч.
Смотрите также архив погоды в соседних городах и на ближайших метеорологических станциях:
Партнеры нашего сайта:      
Пояснения к столбцам:
  • Ветер - указаны скорость ветра в м/с - средняя за 10 мин, порывы в срок и между сроками (в фигурных скобках) и направление, откуда дует ветер: С - северный,
  • СВ - северо-восточный, В - восточный, ЮВ - юго-восточный, Ю - южный, ЮЗ - юго-западный, З - западный, СЗ - северо-западный.
  • Видимость - горизонтальная дальность видимости в метрах или километрах. При видимости от 1 до 10 км при отсутствии осадков обычно наблюдается дымка, при ухудшении видимости до 1 км и менее - туман. В сухую погоду видимость может ухудшаться дымом, пылью или мглою.
  • Явления - указаны атмосферные явления, наблюдавшиеся в срок или в последний час перед сроком; фигурными скобками обозначены явления, наблюдавшиеся между сроками (за 1-3 часа до срока); квадратными скобками обозначены град или гололедные отложения с указанием их диаметра в мм.
  • Облачность - указаны через наклонную черту общая и нижняя облачность в баллах и высота нижней границы облаков в метрах; квадратными скобками обозначены формы облаков: Ci - перистые, Cs - перисто-слоистые, Cc - перисто-кучевые, Ac - высококучевые, As - высокослоистые, Sc - слоисто-кучевые, Ns - слоисто-дождевые, Cu - кучевые, Cb - кучево-дождевые. Подробнее классификацию облаков см. в Атласе облаков (PDF).
  • T - Температура воздуха - температура, измеренная на высоте 2 м над землей.
  • Td - Температура точки росы - температура, при понижении до которой содержащийся в воздухе водяной пар достигнет насыщения.
  • f - Относительная влажность воздуха - влажноcть воздуха, измеренная на высоте 2 м над землей.
  • Te - Эффективная температура - температура, которую ощущает одетый по сезону человек в тени. Характеристика душности погоды. При расчете учитывается влияние влажности воздуха и скорости ветра на теплоощущения человека.
  • Tes - Эффективная температура на солнце - температура, которую ощущает человек, с поправкой на солнечный нагрев. Характеристика знойности погоды. Зависит от высоты солнца над горизонтом, облачности и скорости ветра. Ночью, в пасмурную погоду, а также при ветре 12 м/с и более поправка равна нулю.
  • P - Атмосферное давление - приведенное к уровню моря атмосферное давление.
  • Po - Атмосферное давление - измеренное на уровне метеостанции атмосферное давление.
  • Tmin - Минимальная температура - минимум температуры воздуха на высоте 2 м над землей.
  • Tmax - Максимальная температура - максимум температуры воздуха на высоте 2 м над землей.
  • R - Количество осадков - Количество выпавших осадков за период времени, мм. При наведении курсора мыши на число - период времени, за который выпало указанное количество осадков.
  • R24 - Количество осадков - Количество выпавших осадков за 24 часа, мм.
  • S - Снежный покров - Высота снежного покрова, см. При наведении курсора мыши на число - состояние снежного покрова и степень покрытия местности в баллах.